Skip Page Navigation
NASA JPL Caltech
NASA Logo - Jet Propulsion Laboratory + View the NASA Portal
+ Center for Near-Earth Object Studies
JPL Home Earth Solar System Stars & Galaxies Technology
JPL Solar System Dynamics
BODIES ORBITS EPHEMERIDES TOOLS PHYSICAL DATA DISCOVERY FAQ SITE MAP
IMPORTANT: The SSD Announcement email list is now available. Major changes are coming in the near future, including possible hostname and/or URL changes. To be notified of such changes, subscribe to this email list.

Please visit this page for more details.


JPL Small-Body Database Browser
Search: [ help ]  
146044 (2000 EB10)
Classification: Main-belt Asteroid          SPK-ID: 2146044
Ephemeris | Orbit Diagram | Orbital Elements | Mission Design | Physical Parameters | Discovery Circumstances | Close-Approach Data ]

[ show orbit diagram ]
Orbital Elements at Epoch 2458600.5 (2019-Apr-27.0) TDB
Reference: JPL 16 (heliocentric ecliptic J2000)
 Element Value Uncertainty (1-sigma)   Units 
e .120589591528914 4.7449e-08  
a 2.406869058589093 1.3539e-08 au
q 2.116625701950253 1.1425e-07 au
i 2.383253302229555 5.4355e-06 deg
node 185.8540828970565 9.6584e-05 deg
peri 342.2101026035114 9.8445e-05 deg
M 45.41741216523107 1.891e-05 deg
tp 2458428.433229755543
(2018-Nov-05.93322976)
7.1123e-05 TDB
period 1363.883020517522
3.73
1.1508e-05
3.151e-08
d
yr
n .2639522558638489 2.2272e-09 deg/d
Q 2.697112415227934 1.5172e-08 au
  Orbit Determination Parameters
   # obs. used (total)      394  
   data-arc span      8512 days (23.30 yr)  
   first obs. used      1996-01-20  
   last obs. used      2019-05-11  
   planetary ephem.      DE431  
   SB-pert. ephem.      SB431-N16  
   condition code      0  
   norm. resid. RMS      .55529  
   source      ORB  
   producer      Otto Matic  
   solution date      2019-May-30 07:21:47  

Additional Information
 Earth MOID = 1.12367 au 
 Jupiter MOID = 2.27424 au 
 T_jup = 3.511 
[ show covariance matrix ]

Ephemeris | Orbit Diagram | Orbital Elements | Mission Design | Physical Parameters | Discovery Circumstances | Close-Approach Data ]

Physical Parameter Table
Parameter Symbol Value Units Sigma Reference Notes
absolute magnitude H 16.6   n/a MPO432916  

146044 (2000 EB10)          Discovered 2000-Mar-03 by LINEAR at Socorro
Reference: 20070106/Numbers.arcLast Updated: 2007-01-09

[ show close-approach data ]
Alternate Designations
 2000 EB10 = 2004 HV19 
Ephemeris | Orbit Diagram | Orbital Elements | Mission Design | Physical Parameters | Discovery Circumstances | Close-Approach Data ]
ABOUT SSD CREDITS/AWARDS PRIVACY/COPYRIGHT GLOSSARY LINKS
FirstGov 2019-Dec-13 05:46 UT
(server date/time)  
NASA Home Page
Site Manager:   Ryan S. Park
Webmaster  Alan B. Chamberlin